Year,Month,Day,Hour,Minute,Value (Times are PST for temperature in C)
2015,10,03,00,00,9.80
2015,10,03,00,01,9.80
2015,10,03,00,02,9.80
2015,10,03,00,03,9.70
2015,10,03,00,04,9.70
2015,10,03,00,05,9.70
2015,10,03,00,06,9.70
2015,10,03,00,07,9.70
2015,10,03,00,08,9.70
2015,10,03,00,09,9.70
2015,10,03,00,10,9.70
2015,10,03,00,11,9.70
2015,10,03,00,12,9.70
2015,10,03,00,13,9.70
2015,10,03,00,14,9.80
2015,10,03,00,15,9.70
2015,10,03,00,16,9.70
2015,10,03,00,17,9.70
2015,10,03,00,18,9.70
2015,10,03,00,19,9.70
2015,10,03,00,20,9.60
2015,10,03,00,21,9.70
2015,10,03,00,22,9.70
2015,10,03,00,23,9.70
2015,10,03,00,24,9.70
2015,10,03,00,25,9.70
2015,10,03,00,26,9.60
2015,10,03,00,27,9.60
2015,10,03,00,28,9.60
2015,10,03,00,29,9.60
2015,10,03,00,30,9.60
2015,10,03,00,31,9.60
2015,10,03,00,32,9.60
2015,10,03,00,33,9.60
2015,10,03,00,34,9.60
2015,10,03,00,35,9.60
2015,10,03,00,36,9.60
2015,10,03,00,37,9.60
2015,10,03,00,38,9.50
2015,10,03,00,39,9.50
2015,10,03,00,40,9.40
2015,10,03,00,41,9.40
2015,10,03,00,42,9.40
2015,10,03,00,43,9.40
2015,10,03,00,44,9.40
2015,10,03,00,45,9.30
2015,10,03,00,46,9.30
2015,10,03,00,47,9.30
2015,10,03,00,48,9.30
2015,10,03,00,49,9.30
2015,10,03,00,50,9.20
2015,10,03,00,51,9.20
2015,10,03,00,52,9.20
2015,10,03,00,53,9.20
2015,10,03,00,54,9.20
2015,10,03,00,55,9.10
2015,10,03,00,56,9.10
2015,10,03,00,57,9.10
2015,10,03,00,58,9.10
2015,10,03,00,59,9.10
2015,10,03,01,00,9.00
2015,10,03,01,01,9.00
2015,10,03,01,02,9.00
2015,10,03,01,03,8.90
2015,10,03,01,04,8.90
2015,10,03,01,05,8.90
2015,10,03,01,06,8.80
2015,10,03,01,07,8.80
2015,10,03,01,08,8.80
2015,10,03,01,09,8.80
2015,10,03,01,10,8.80
2015,10,03,01,11,8.70
2015,10,03,01,12,8.70
2015,10,03,01,13,8.70
2015,10,03,01,14,8.60
2015,10,03,01,15,8.60
2015,10,03,01,16,8.60
2015,10,03,01,17,8.50
2015,10,03,01,18,8.50
2015,10,03,01,19,8.50
2015,10,03,01,20,8.50
2015,10,03,01,21,8.50
2015,10,03,01,22,8.50
2015,10,03,01,23,8.60
2015,10,03,01,24,8.60
2015,10,03,01,25,8.60
2015,10,03,01,26,8.60
2015,10,03,01,27,8.60
2015,10,03,01,28,8.60
2015,10,03,01,29,8.70
2015,10,03,01,30,8.70
2015,10,03,01,31,8.70
2015,10,03,01,32,8.70
2015,10,03,01,33,8.70
2015,10,03,01,34,8.70
2015,10,03,01,35,8.70
2015,10,03,01,36,8.70
2015,10,03,01,37,8.70
2015,10,03,01,38,8.60
2015,10,03,01,39,8.60
2015,10,03,01,40,8.60
2015,10,03,01,41,8.60
2015,10,03,01,42,8.60
2015,10,03,01,43,8.60
2015,10,03,01,44,8.50
2015,10,03,01,45,8.50
2015,10,03,01,46,8.50
2015,10,03,01,47,8.50
2015,10,03,01,48,8.40
2015,10,03,01,49,8.40
2015,10,03,01,50,8.40
2015,10,03,01,51,8.40
2015,10,03,01,52,8.40
2015,10,03,01,53,8.40
2015,10,03,01,54,8.40
2015,10,03,01,55,8.40
2015,10,03,01,56,8.40
2015,10,03,01,57,8.40
2015,10,03,01,58,8.40
2015,10,03,01,59,8.40
2015,10,03,02,00,8.40
2015,10,03,02,01,8.40
2015,10,03,02,02,8.30
2015,10,03,02,03,8.30
2015,10,03,02,04,8.30
2015,10,03,02,05,8.30
2015,10,03,02,06,8.30
2015,10,03,02,07,8.30
2015,10,03,02,08,8.30
2015,10,03,02,09,8.30
2015,10,03,02,10,8.20
2015,10,03,02,11,8.20
2015,10,03,02,12,8.20
2015,10,03,02,13,8.20
2015,10,03,02,14,8.10
2015,10,03,02,15,8.10
2015,10,03,02,16,8.10
2015,10,03,02,17,8.10
2015,10,03,02,18,8.10
2015,10,03,02,19,8.10
2015,10,03,02,20,8.00
2015,10,03,02,21,8.00
2015,10,03,02,22,8.00
2015,10,03,02,23,8.00
2015,10,03,02,24,8.00
2015,10,03,02,25,8.00
2015,10,03,02,26,8.00
2015,10,03,02,27,7.90
2015,10,03,02,28,7.90
2015,10,03,02,29,7.90
2015,10,03,02,30,7.90
2015,10,03,02,31,7.90
2015,10,03,02,32,7.90
2015,10,03,02,33,7.90
2015,10,03,02,34,7.90
2015,10,03,02,35,7.90
2015,10,03,02,36,7.80
2015,10,03,02,37,7.80
2015,10,03,02,38,7.80
2015,10,03,02,39,7.80
2015,10,03,02,40,7.80
2015,10,03,02,41,7.80
2015,10,03,02,42,7.80
2015,10,03,02,43,7.80
2015,10,03,02,44,7.70
2015,10,03,02,45,7.70
2015,10,03,02,46,7.70
2015,10,03,02,47,7.70
2015,10,03,02,48,7.70
2015,10,03,02,49,7.70
2015,10,03,02,50,7.70
2015,10,03,02,51,7.70
2015,10,03,02,52,7.70
2015,10,03,02,53,7.70
2015,10,03,02,54,7.70
2015,10,03,02,55,7.70
2015,10,03,02,56,7.70
2015,10,03,02,57,7.70
2015,10,03,02,58,7.60
2015,10,03,02,59,7.60
2015,10,03,03,00,7.60
2015,10,03,03,01,7.60
2015,10,03,03,02,7.60
2015,10,03,03,03,7.60
2015,10,03,03,04,7.60
2015,10,03,03,05,7.60
2015,10,03,03,06,7.60
2015,10,03,03,07,7.60
2015,10,03,03,08,7.60
2015,10,03,03,09,7.60
2015,10,03,03,10,7.50
2015,10,03,03,11,7.50
2015,10,03,03,12,7.50
2015,10,03,03,13,7.50
2015,10,03,03,14,7.50
2015,10,03,03,15,7.50
2015,10,03,03,16,7.40
2015,10,03,03,17,7.40
2015,10,03,03,18,7.40
2015,10,03,03,19,7.40
2015,10,03,03,20,7.40
2015,10,03,03,21,7.40
2015,10,03,03,22,7.40
2015,10,03,03,23,7.40
2015,10,03,03,24,7.40
2015,10,03,03,25,7.40
2015,10,03,03,26,7.40
2015,10,03,03,27,7.30
2015,10,03,03,28,7.30
2015,10,03,03,29,7.30
2015,10,03,03,30,7.30
2015,10,03,03,31,7.30
2015,10,03,03,32,7.30
2015,10,03,03,33,7.30
2015,10,03,03,34,7.30
2015,10,03,03,35,7.30
2015,10,03,03,36,7.30
2015,10,03,03,37,7.20
2015,10,03,03,38,7.20
2015,10,03,03,39,7.20
2015,10,03,03,40,7.20
2015,10,03,03,41,7.20
2015,10,03,03,42,7.20
2015,10,03,03,43,7.20
2015,10,03,03,44,7.20
2015,10,03,03,45,7.10
2015,10,03,03,46,7.10
2015,10,03,03,47,7.10
2015,10,03,03,48,7.10
2015,10,03,03,49,7.10
2015,10,03,03,50,7.10
2015,10,03,03,51,7.10
2015,10,03,03,52,7.00
2015,10,03,03,53,7.00
2015,10,03,03,54,7.00
2015,10,03,03,55,7.00
2015,10,03,03,56,7.00
2015,10,03,03,57,7.00
2015,10,03,03,58,7.00
2015,10,03,03,59,7.00
2015,10,03,04,00,7.00
2015,10,03,04,01,6.90
2015,10,03,04,02,6.90
2015,10,03,04,03,6.90
2015,10,03,04,04,6.90
2015,10,03,04,05,6.90
2015,10,03,04,06,6.90
2015,10,03,04,07,6.90
2015,10,03,04,08,6.90
2015,10,03,04,09,6.90
2015,10,03,04,10,6.90
2015,10,03,04,11,6.90
2015,10,03,04,12,6.90
2015,10,03,04,13,6.90
2015,10,03,04,14,6.80
2015,10,03,04,15,6.80
2015,10,03,04,16,6.80
2015,10,03,04,17,6.80
2015,10,03,04,18,6.70
2015,10,03,04,19,6.70
2015,10,03,04,20,6.70
2015,10,03,04,21,6.70
2015,10,03,04,22,6.70
2015,10,03,04,23,6.70
2015,10,03,04,24,6.70
2015,10,03,04,25,6.70
2015,10,03,04,26,6.60
2015,10,03,04,27,6.60
2015,10,03,04,28,6.60
2015,10,03,04,29,6.60
2015,10,03,04,30,6.60
2015,10,03,04,31,6.60
2015,10,03,04,32,6.60
2015,10,03,04,33,6.60
2015,10,03,04,34,6.60
2015,10,03,04,35,6.60
2015,10,03,04,36,6.60
2015,10,03,04,37,6.60
2015,10,03,04,38,6.60
2015,10,03,04,39,6.60
2015,10,03,04,40,6.60
2015,10,03,04,41,6.60
2015,10,03,04,42,6.60
2015,10,03,04,43,6.60
2015,10,03,04,44,6.60
2015,10,03,04,45,6.60
2015,10,03,04,46,6.60
2015,10,03,04,47,6.60
2015,10,03,04,49,6.60
2015,10,03,04,50,6.60
2015,10,03,04,51,6.60
2015,10,03,04,52,6.60
2015,10,03,04,53,6.50
2015,10,03,04,54,6.50
2015,10,03,04,55,6.50
2015,10,03,04,56,6.50
2015,10,03,04,57,6.50
2015,10,03,04,58,6.40
2015,10,03,04,59,6.40
2015,10,03,05,00,6.40
2015,10,03,05,01,6.40
2015,10,03,05,02,6.40
2015,10,03,05,03,6.40
2015,10,03,05,04,6.40
2015,10,03,05,05,6.40
2015,10,03,05,06,6.40
2015,10,03,05,07,6.40
2015,10,03,05,08,6.40
2015,10,03,05,09,6.40
2015,10,03,05,10,6.40
2015,10,03,05,11,6.40
2015,10,03,05,12,6.40
2015,10,03,05,13,6.30
2015,10,03,05,14,6.30
2015,10,03,05,15,6.30
2015,10,03,05,16,6.30
2015,10,03,05,17,6.30
2015,10,03,05,18,6.30
2015,10,03,05,19,6.30
2015,10,03,05,20,6.30
2015,10,03,05,21,6.30
2015,10,03,05,22,6.30
2015,10,03,05,23,6.20
2015,10,03,05,24,6.20
2015,10,03,05,25,6.20
2015,10,03,05,26,6.20
2015,10,03,05,27,6.20
2015,10,03,05,28,6.20
2015,10,03,05,29,6.20
2015,10,03,05,30,6.20
2015,10,03,05,31,6.20
2015,10,03,05,32,6.20
2015,10,03,05,33,6.20
2015,10,03,05,34,6.20
2015,10,03,05,35,6.20
2015,10,03,05,37,6.20
2015,10,03,05,38,6.30
2015,10,03,05,39,6.30
2015,10,03,05,40,6.30
2015,10,03,05,41,6.30
2015,10,03,05,42,6.30
2015,10,03,05,43,6.30
2015,10,03,05,44,6.30
2015,10,03,05,45,6.30
2015,10,03,05,46,6.30
2015,10,03,05,47,6.30
2015,10,03,05,48,6.30
2015,10,03,05,49,6.30
2015,10,03,05,50,6.40
2015,10,03,05,51,6.40
2015,10,03,05,52,6.40
2015,10,03,05,53,6.40
2015,10,03,05,54,6.40
2015,10,03,05,55,6.40
2015,10,03,05,56,6.40
2015,10,03,05,57,6.40
2015,10,03,05,58,6.40
2015,10,03,05,59,6.40
2015,10,03,06,00,6.40
2015,10,03,06,01,6.30
2015,10,03,06,02,6.30
2015,10,03,06,03,6.30
2015,10,03,06,04,6.30
2015,10,03,06,05,6.30
2015,10,03,06,06,6.30
2015,10,03,06,07,6.30
2015,10,03,06,08,6.30
2015,10,03,06,09,6.30
2015,10,03,06,10,6.30
2015,10,03,06,11,6.30
2015,10,03,06,12,6.20
2015,10,03,06,13,6.20
2015,10,03,06,14,6.20
2015,10,03,06,15,6.20
2015,10,03,06,16,6.20
2015,10,03,06,17,6.20
2015,10,03,06,18,6.20
2015,10,03,06,19,6.20
2015,10,03,06,21,6.20
2015,10,03,06,22,6.20
2015,10,03,06,23,6.20
2015,10,03,06,24,6.20
2015,10,03,06,25,6.20
2015,10,03,06,26,6.20
2015,10,03,06,28,6.10
2015,10,03,06,29,6.10
2015,10,03,06,30,6.10
2015,10,03,06,31,6.10
2015,10,03,06,32,6.10
2015,10,03,06,33,6.10
2015,10,03,06,34,6.00
2015,10,03,06,35,6.00
2015,10,03,06,36,6.00
2015,10,03,06,37,6.00
2015,10,03,06,38,5.90
2015,10,03,06,39,6.00
2015,10,03,06,40,6.00
2015,10,03,06,41,6.00
2015,10,03,06,42,6.00
2015,10,03,06,43,6.00
2015,10,03,06,44,6.00
2015,10,03,06,45,6.00
2015,10,03,06,46,6.00
2015,10,03,06,47,6.00
2015,10,03,06,48,6.00
2015,10,03,06,49,6.00
2015,10,03,06,50,6.10
2015,10,03,06,51,6.10
2015,10,03,06,52,6.10
2015,10,03,06,53,6.10
2015,10,03,06,54,6.10
2015,10,03,06,55,6.10
2015,10,03,06,56,6.10
2015,10,03,06,57,6.10
2015,10,03,06,58,6.10
2015,10,03,06,59,6.10
2015,10,03,07,00,6.10
2015,10,03,07,01,6.10
2015,10,03,07,02,6.10
2015,10,03,07,03,6.20
2015,10,03,07,04,6.20
2015,10,03,07,05,6.20
2015,10,03,07,06,6.20
2015,10,03,07,07,6.20
2015,10,03,07,08,6.30
2015,10,03,07,09,6.30
2015,10,03,07,10,6.30
2015,10,03,07,11,6.30
2015,10,03,07,12,6.30
2015,10,03,07,13,6.30
2015,10,03,07,14,6.30
2015,10,03,07,15,6.30
2015,10,03,07,16,6.30
2015,10,03,07,17,6.30
2015,10,03,07,18,6.30
2015,10,03,07,19,6.30
2015,10,03,07,20,6.30
2015,10,03,07,21,6.30
2015,10,03,07,22,6.30
2015,10,03,07,23,6.30
2015,10,03,07,24,6.30
2015,10,03,07,25,6.30
2015,10,03,07,26,6.30
2015,10,03,07,27,6.30
2015,10,03,07,28,6.30
2015,10,03,07,29,6.30
2015,10,03,07,30,6.30
2015,10,03,07,31,6.30
2015,10,03,07,32,6.30
2015,10,03,07,33,6.30
2015,10,03,07,34,6.30
2015,10,03,07,35,6.30
2015,10,03,07,36,6.30
2015,10,03,07,37,6.30
2015,10,03,07,38,6.30
2015,10,03,07,39,6.30
2015,10,03,07,40,6.30
2015,10,03,07,41,6.30
2015,10,03,07,42,6.30
2015,10,03,07,43,6.30
2015,10,03,07,44,6.30
2015,10,03,07,45,6.30
2015,10,03,07,46,6.30
2015,10,03,07,47,6.30
2015,10,03,07,48,6.30
2015,10,03,07,49,6.30
2015,10,03,07,50,6.30
2015,10,03,07,51,6.30
2015,10,03,07,52,6.30
2015,10,03,07,53,6.30
2015,10,03,07,54,6.30
2015,10,03,07,55,6.30
2015,10,03,07,56,6.30
2015,10,03,07,57,6.30
2015,10,03,07,58,6.30
2015,10,03,07,59,6.30
2015,10,03,08,00,6.30
2015,10,03,08,01,6.30
2015,10,03,08,02,6.30
2015,10,03,08,03,6.30
2015,10,03,08,04,6.30
2015,10,03,08,05,6.30
2015,10,03,08,06,6.40
2015,10,03,08,07,6.40
2015,10,03,08,08,6.40
2015,10,03,08,09,6.40
2015,10,03,08,10,6.40
2015,10,03,08,11,6.40
2015,10,03,08,12,6.50
2015,10,03,08,13,6.50
2015,10,03,08,14,6.50
2015,10,03,08,15,6.50
2015,10,03,08,16,6.50
2015,10,03,08,17,6.50
2015,10,03,08,18,6.50
2015,10,03,08,19,6.50
2015,10,03,08,20,6.50
2015,10,03,08,21,6.50
2015,10,03,08,22,6.50
2015,10,03,08,23,6.50
2015,10,03,08,24,6.50
2015,10,03,08,25,6.60
2015,10,03,08,26,6.60
2015,10,03,08,27,6.60
2015,10,03,08,28,6.60
2015,10,03,08,29,6.60
2015,10,03,08,30,6.60
2015,10,03,08,31,6.60
2015,10,03,08,32,6.60
2015,10,03,08,33,6.60
2015,10,03,08,34,6.60
2015,10,03,08,35,6.60
2015,10,03,08,36,6.60
2015,10,03,08,37,6.60
2015,10,03,08,38,6.60
2015,10,03,08,39,6.60
2015,10,03,08,40,6.60
2015,10,03,08,41,6.60
2015,10,03,08,42,6.60
2015,10,03,08,43,6.60
2015,10,03,08,44,6.60
2015,10,03,08,45,6.60
2015,10,03,08,46,6.60
2015,10,03,08,47,6.70
2015,10,03,08,48,6.70
2015,10,03,08,49,6.70
2015,10,03,08,50,6.70
2015,10,03,08,51,6.70
2015,10,03,08,52,6.70
2015,10,03,08,53,6.80
2015,10,03,08,54,6.80
2015,10,03,08,55,6.80
2015,10,03,08,56,6.90
2015,10,03,08,57,6.90
2015,10,03,08,58,6.90
2015,10,03,08,59,6.90
2015,10,03,09,00,7.00
2015,10,03,09,01,7.00
2015,10,03,09,02,7.10
2015,10,03,09,03,7.10
2015,10,03,09,04,7.00
2015,10,03,09,05,7.10
2015,10,03,09,06,7.10
2015,10,03,09,07,7.10
2015,10,03,09,08,7.10
2015,10,03,09,09,7.10
2015,10,03,09,10,7.10
2015,10,03,09,11,7.10
2015,10,03,09,12,7.10
2015,10,03,09,13,7.20
2015,10,03,09,14,7.20
2015,10,03,09,15,7.20
2015,10,03,09,16,7.20
2015,10,03,09,17,7.20
2015,10,03,09,18,7.20
2015,10,03,09,19,7.20
2015,10,03,09,20,7.20
2015,10,03,09,21,7.10
2015,10,03,09,22,7.10
2015,10,03,09,23,7.10
2015,10,03,09,24,7.10
2015,10,03,09,25,7.10
2015,10,03,09,26,7.10
2015,10,03,09,27,7.10
2015,10,03,09,28,7.20
2015,10,03,09,29,7.20
2015,10,03,09,30,7.20
2015,10,03,09,31,7.20
2015,10,03,09,32,7.20
2015,10,03,09,33,7.30
2015,10,03,09,34,7.30
2015,10,03,09,35,7.40
2015,10,03,09,36,7.40
2015,10,03,09,37,7.50
2015,10,03,09,38,7.60
2015,10,03,09,39,7.60
2015,10,03,09,40,7.60
2015,10,03,09,41,7.60
2015,10,03,09,42,7.60
2015,10,03,09,43,7.70
2015,10,03,09,44,7.70
2015,10,03,09,45,7.70
2015,10,03,09,46,7.80
2015,10,03,09,47,7.80
2015,10,03,09,48,7.80
2015,10,03,09,49,7.80
2015,10,03,09,50,7.80
2015,10,03,09,51,7.80
2015,10,03,09,52,7.90
2015,10,03,09,53,7.90
2015,10,03,09,54,7.80
2015,10,03,09,55,7.90
2015,10,03,09,56,7.80
2015,10,03,09,57,7.80
2015,10,03,09,58,7.80
2015,10,03,09,59,7.80
2015,10,03,10,00,7.80
2015,10,03,10,01,7.80
2015,10,03,10,02,7.90
2015,10,03,10,03,7.90
2015,10,03,10,04,8.00
2015,10,03,10,05,8.10
2015,10,03,10,06,8.10
2015,10,03,10,07,8.20
2015,10,03,10,08,8.30
2015,10,03,10,09,8.30
2015,10,03,10,10,8.40
2015,10,03,10,11,8.40
2015,10,03,10,12,8.50
2015,10,03,10,13,8.60
2015,10,03,10,14,8.70
2015,10,03,10,15,8.70
2015,10,03,10,16,8.80
2015,10,03,10,17,8.80
2015,10,03,10,18,8.80
2015,10,03,10,19,8.80
2015,10,03,10,20,8.90
2015,10,03,10,21,8.90
2015,10,03,10,22,8.90
2015,10,03,10,23,8.90
2015,10,03,10,24,8.90
2015,10,03,10,25,8.90
2015,10,03,10,26,8.90
2015,10,03,10,27,8.90
2015,10,03,10,28,8.90
2015,10,03,10,29,9.00
2015,10,03,10,30,9.10
2015,10,03,10,31,9.10
2015,10,03,10,32,9.20
2015,10,03,10,33,9.20
2015,10,03,10,34,9.30
2015,10,03,10,35,9.30
2015,10,03,10,36,9.40
2015,10,03,10,37,9.40
2015,10,03,10,38,9.60
2015,10,03,10,39,9.60
2015,10,03,10,40,9.60
2015,10,03,10,41,9.60
2015,10,03,10,42,9.60
2015,10,03,10,43,9.60
2015,10,03,10,44,9.60
2015,10,03,10,45,9.60
2015,10,03,10,46,9.60
2015,10,03,10,47,9.70
2015,10,03,10,48,9.70
2015,10,03,10,49,9.70
2015,10,03,10,50,9.70
2015,10,03,10,51,9.70
2015,10,03,10,52,9.80
2015,10,03,10,53,9.80
2015,10,03,10,54,9.80
2015,10,03,10,55,9.80
2015,10,03,10,56,9.90
2015,10,03,10,57,9.90
2015,10,03,10,58,10.10
2015,10,03,10,59,10.10
2015,10,03,11,00,10.10
2015,10,03,11,01,10.20
2015,10,03,11,02,10.20
2015,10,03,11,03,10.30
2015,10,03,11,04,10.40
2015,10,03,11,05,10.50
2015,10,03,11,06,10.70
2015,10,03,11,07,10.70
2015,10,03,11,08,10.80
2015,10,03,11,09,10.90
2015,10,03,11,10,11.10
2015,10,03,11,11,11.20
2015,10,03,11,12,11.20
2015,10,03,11,13,11.30
2015,10,03,11,14,11.30
2015,10,03,11,15,11.40
2015,10,03,11,16,11.30
2015,10,03,11,17,11.30
2015,10,03,11,18,11.30
2015,10,03,11,19,11.30
2015,10,03,11,20,11.30
2015,10,03,11,21,11.40
2015,10,03,11,22,11.40
2015,10,03,11,23,11.50
2015,10,03,11,24,11.60
2015,10,03,11,25,11.60
2015,10,03,11,26,11.70
2015,10,03,11,27,11.70
2015,10,03,11,28,11.80
2015,10,03,11,29,11.80
2015,10,03,11,30,11.90
2015,10,03,11,31,12.00
2015,10,03,11,32,12.10
2015,10,03,11,33,12.20
2015,10,03,11,34,12.20
2015,10,03,11,35,12.30
2015,10,03,11,36,12.40
2015,10,03,11,37,12.50
2015,10,03,11,38,12.60
2015,10,03,11,39,12.70
2015,10,03,11,40,12.80
2015,10,03,11,41,12.90
2015,10,03,11,42,13.00
2015,10,03,11,43,13.10
2015,10,03,11,44,13.20
2015,10,03,11,45,13.20
2015,10,03,11,46,13.30
2015,10,03,11,47,13.40
2015,10,03,11,48,13.50
2015,10,03,11,49,13.60
2015,10,03,11,50,13.70
2015,10,03,11,51,13.80
2015,10,03,11,52,13.90
2015,10,03,11,53,13.90
2015,10,03,11,54,14.00
2015,10,03,11,55,14.10
2015,10,03,11,56,14.10
2015,10,03,11,57,14.20
2015,10,03,11,58,14.30
2015,10,03,11,59,14.30
2015,10,03,12,00,14.40
2015,10,03,12,01,14.50
2015,10,03,12,02,14.60
2015,10,03,12,03,14.70
2015,10,03,12,04,14.80
2015,10,03,12,05,14.90
2015,10,03,12,06,15.00
2015,10,03,12,07,15.20
2015,10,03,12,08,15.30
2015,10,03,12,09,15.30
2015,10,03,12,10,15.40
2015,10,03,12,11,15.50
2015,10,03,12,12,15.60
2015,10,03,12,13,15.70
2015,10,03,12,14,15.70
2015,10,03,12,15,15.80
2015,10,03,12,16,15.80
2015,10,03,12,17,15.90
2015,10,03,12,18,15.90
2015,10,03,12,19,16.10
2015,10,03,12,20,16.10
2015,10,03,12,21,16.20
2015,10,03,12,22,16.30
2015,10,03,12,23,16.40
2015,10,03,12,24,16.50
2015,10,03,12,25,16.60
2015,10,03,12,26,16.70
2015,10,03,12,27,16.70
2015,10,03,12,28,16.70
2015,10,03,12,29,16.70
2015,10,03,12,30,16.70
2015,10,03,12,31,16.70
2015,10,03,12,32,16.80
2015,10,03,12,33,16.80
2015,10,03,12,34,16.90
2015,10,03,12,35,17.00
2015,10,03,12,36,17.10
2015,10,03,12,37,17.20
2015,10,03,12,38,17.30
2015,10,03,12,39,17.30
2015,10,03,12,40,17.40
2015,10,03,12,41,17.50
2015,10,03,12,42,17.60
2015,10,03,12,43,17.60
2015,10,03,12,44,17.60
2015,10,03,12,45,17.60
2015,10,03,12,46,17.60
2015,10,03,12,47,17.60
2015,10,03,12,48,17.70
2015,10,03,12,49,17.70
2015,10,03,12,50,17.80
2015,10,03,12,51,17.80
2015,10,03,12,52,17.90
2015,10,03,12,53,18.00
2015,10,03,12,54,18.10
2015,10,03,12,55,18.20
2015,10,03,12,56,18.30
2015,10,03,12,57,18.30
2015,10,03,12,58,18.30
2015,10,03,12,59,18.30
2015,10,03,13,00,18.30
2015,10,03,13,01,18.30
2015,10,03,13,02,18.40
2015,10,03,13,03,18.50
2015,10,03,13,04,18.60
2015,10,03,13,05,18.70
2015,10,03,13,06,18.80
2015,10,03,13,07,18.80
2015,10,03,13,08,18.80
2015,10,03,13,09,18.80
2015,10,03,13,10,18.80
2015,10,03,13,11,18.90
2015,10,03,13,12,19.00
2015,10,03,13,13,19.10
2015,10,03,13,14,19.20
2015,10,03,13,15,19.20
2015,10,03,13,16,19.20
2015,10,03,13,17,19.30
2015,10,03,13,18,19.30
2015,10,03,13,19,19.40
2015,10,03,13,20,19.40
2015,10,03,13,21,19.50
2015,10,03,13,22,19.50
2015,10,03,13,23,19.50
2015,10,03,13,24,19.60
2015,10,03,13,25,19.60
2015,10,03,13,26,19.50
2015,10,03,13,27,19.50
2015,10,03,13,28,19.60
2015,10,03,13,29,19.60
2015,10,03,13,30,19.70
2015,10,03,13,31,19.70
2015,10,03,13,32,19.80
2015,10,03,13,33,19.80
2015,10,03,13,34,20.00
2015,10,03,13,35,20.10
2015,10,03,13,36,20.20
2015,10,03,13,37,20.20
2015,10,03,13,38,20.20
2015,10,03,13,39,20.30
2015,10,03,13,40,20.40
2015,10,03,13,41,20.50
2015,10,03,13,42,20.70
2015,10,03,13,43,20.70
2015,10,03,13,44,20.80
2015,10,03,13,45,20.90
2015,10,03,13,46,20.90
2015,10,03,13,47,20.80
2015,10,03,13,48,20.80
2015,10,03,13,49,20.80
2015,10,03,13,50,20.70
2015,10,03,13,51,20.60
2015,10,03,13,52,20.50
2015,10,03,13,53,20.40
2015,10,03,13,54,20.30
2015,10,03,13,55,20.20
2015,10,03,13,56,20.20
2015,10,03,13,57,20.10
2015,10,03,13,58,20.20
2015,10,03,13,59,20.20
2015,10,03,14,00,20.30
2015,10,03,14,01,20.50
2015,10,03,14,02,20.60
2015,10,03,14,03,20.70
2015,10,03,14,04,20.70
2015,10,03,14,05,20.80
2015,10,03,14,06,20.80
2015,10,03,14,07,20.70
2015,10,03,14,08,20.70
2015,10,03,14,09,20.70
2015,10,03,14,10,20.70
2015,10,03,14,11,20.70
2015,10,03,14,12,20.70
2015,10,03,14,13,20.80
2015,10,03,14,14,20.80
2015,10,03,14,15,20.90
2015,10,03,14,16,21.00
2015,10,03,14,17,21.10
2015,10,03,14,18,21.20
2015,10,03,14,19,21.30
2015,10,03,14,20,21.40
2015,10,03,14,21,21.50
2015,10,03,14,22,21.60
2015,10,03,14,23,21.50
2015,10,03,14,24,21.40
2015,10,03,14,25,21.40
2015,10,03,14,26,21.40
2015,10,03,14,27,21.40
2015,10,03,14,28,21.50
2015,10,03,14,29,21.60
2015,10,03,14,30,21.70
2015,10,03,14,31,21.70
2015,10,03,14,32,21.80
2015,10,03,14,33,21.80
2015,10,03,14,34,21.80
2015,10,03,14,35,21.80
2015,10,03,14,36,21.80
2015,10,03,14,37,21.70
2015,10,03,14,38,21.70
2015,10,03,14,39,21.70
2015,10,03,14,40,21.70
2015,10,03,14,41,21.70
2015,10,03,14,42,21.60
2015,10,03,14,43,21.70
2015,10,03,14,44,21.70
2015,10,03,14,45,21.70
2015,10,03,14,46,21.80
2015,10,03,14,47,21.80
2015,10,03,14,48,21.90
2015,10,03,14,49,22.00
2015,10,03,14,50,22.10
2015,10,03,14,51,22.20
2015,10,03,14,52,22.20
2015,10,03,14,53,22.20
2015,10,03,14,54,22.20
2015,10,03,14,55,22.30
2015,10,03,14,56,22.40
2015,10,03,14,57,22.40
2015,10,03,14,58,22.50
2015,10,03,14,59,22.50
2015,10,03,15,00,22.50
2015,10,03,15,01,22.40
2015,10,03,15,02,22.50
2015,10,03,15,03,22.60
2015,10,03,15,04,22.50
2015,10,03,15,05,22.50
2015,10,03,15,06,22.40
2015,10,03,15,07,22.40
2015,10,03,15,08,22.40
2015,10,03,15,09,22.30
2015,10,03,15,10,22.30
2015,10,03,15,11,22.20
2015,10,03,15,12,22.20
2015,10,03,15,13,22.20
2015,10,03,15,14,22.20
2015,10,03,15,15,22.20
2015,10,03,15,16,22.20
2015,10,03,15,17,22.10
2015,10,03,15,18,22.10
2015,10,03,15,19,22.10
2015,10,03,15,21,22.10
2015,10,03,15,22,22.10
2015,10,03,15,23,22.10
2015,10,03,15,24,22.20
2015,10,03,15,25,22.20
2015,10,03,15,26,22.30
2015,10,03,15,27,22.30
2015,10,03,15,28,22.30
2015,10,03,15,29,22.40
2015,10,03,15,30,22.40
2015,10,03,15,31,22.40
2015,10,03,15,32,22.30
2015,10,03,15,33,22.30
2015,10,03,15,34,22.40
2015,10,03,15,35,22.40
2015,10,03,15,36,22.40
2015,10,03,15,37,22.40
2015,10,03,15,38,22.40
2015,10,03,15,39,22.50
2015,10,03,15,40,22.60
2015,10,03,15,41,22.70
2015,10,03,15,42,22.70
2015,10,03,15,43,22.80
2015,10,03,15,44,22.80
2015,10,03,15,45,22.80
2015,10,03,15,46,22.80
2015,10,03,15,47,22.90
2015,10,03,15,48,22.90
2015,10,03,15,49,22.90
2015,10,03,15,50,23.10
2015,10,03,15,51,23.10
2015,10,03,15,52,23.20
2015,10,03,15,53,23.30
2015,10,03,15,54,23.30
2015,10,03,15,55,23.30
2015,10,03,15,56,23.30
2015,10,03,15,57,23.20
2015,10,03,15,58,23.10
2015,10,03,15,59,23.10
2015,10,03,16,00,22.90
2015,10,03,16,01,22.90
2015,10,03,16,02,22.80
2015,10,03,16,03,22.80
2015,10,03,16,04,22.80
2015,10,03,16,05,22.90
2015,10,03,16,06,22.90
2015,10,03,16,07,22.90
2015,10,03,16,08,22.90
2015,10,03,16,09,22.90
2015,10,03,16,10,22.90
2015,10,03,16,11,22.90
2015,10,03,16,12,23.00
2015,10,03,16,13,23.10
2015,10,03,16,14,23.20
2015,10,03,16,15,23.20
2015,10,03,16,16,23.30
2015,10,03,16,17,23.40
2015,10,03,16,18,23.40
2015,10,03,16,19,23.60
2015,10,03,16,20,23.60
2015,10,03,16,21,23.60
2015,10,03,16,22,23.70
2015,10,03,16,23,23.70
2015,10,03,16,24,23.70
2015,10,03,16,25,23.70
2015,10,03,16,26,23.80
2015,10,03,16,27,23.80
2015,10,03,16,28,23.80
2015,10,03,16,29,23.90
2015,10,03,16,30,23.90
2015,10,03,16,31,24.00
2015,10,03,16,32,24.00
2015,10,03,16,33,24.00
2015,10,03,16,35,23.80
2015,10,03,16,36,23.70
2015,10,03,16,37,23.60
2015,10,03,16,38,23.40
2015,10,03,16,39,23.30
2015,10,03,16,40,23.30
2015,10,03,16,41,23.30
2015,10,03,16,42,23.30
2015,10,03,16,43,23.30
2015,10,03,16,44,23.30
2015,10,03,16,45,23.30
2015,10,03,16,46,23.40
2015,10,03,16,47,23.40
2015,10,03,16,48,23.40
2015,10,03,16,49,23.30
2015,10,03,16,50,23.30
2015,10,03,16,51,23.30
2015,10,03,16,52,23.20
2015,10,03,16,53,23.00
2015,10,03,16,54,22.80
2015,10,03,16,55,22.70
2015,10,03,16,56,22.60
2015,10,03,16,57,22.40
2015,10,03,16,58,22.30
2015,10,03,16,59,22.20
2015,10,03,17,00,22.10
2015,10,03,17,01,22.00
2015,10,03,17,02,21.90
2015,10,03,17,03,21.90
2015,10,03,17,04,21.80
2015,10,03,17,05,21.70
2015,10,03,17,06,21.70
2015,10,03,17,07,21.60
2015,10,03,17,08,21.60
2015,10,03,17,09,21.40
2015,10,03,17,10,21.40
2015,10,03,17,11,21.40
2015,10,03,17,12,21.40
2015,10,03,17,13,21.40
2015,10,03,17,14,21.40
2015,10,03,17,15,21.40
2015,10,03,17,16,21.40
2015,10,03,17,17,21.40
2015,10,03,17,18,21.40
2015,10,03,17,19,21.40
2015,10,03,17,20,21.40
2015,10,03,17,21,21.40
2015,10,03,17,22,21.40
2015,10,03,17,23,21.40
2015,10,03,17,24,21.30
2015,10,03,17,25,21.30
2015,10,03,17,26,21.20
2015,10,03,17,27,21.20
2015,10,03,17,28,21.20
2015,10,03,17,29,21.20
2015,10,03,17,30,21.20
2015,10,03,17,31,21.10
2015,10,03,17,32,20.90
2015,10,03,17,33,20.80
2015,10,03,17,34,20.80
2015,10,03,17,35,20.70
2015,10,03,17,36,20.60
2015,10,03,17,37,20.50
2015,10,03,17,38,20.40
2015,10,03,17,39,20.30
2015,10,03,17,40,20.30
2015,10,03,17,41,20.30
2015,10,03,17,42,20.20
2015,10,03,17,43,20.20
2015,10,03,17,44,20.10
2015,10,03,17,45,20.10
2015,10,03,17,46,20.00
2015,10,03,17,47,19.90
2015,10,03,17,48,19.90
2015,10,03,17,49,19.90
2015,10,03,17,50,19.80
2015,10,03,17,51,19.80
2015,10,03,17,52,19.70
2015,10,03,17,53,19.60